RH
2 2 2 1 2 2 2 2 2 2 2 2 2 2 2 2 2 2 2 2 3 3 3 4 5 6 7 8 9 9 8 8 8 9 9 9 9 10 11 13 14 16 18 22 27 30 30 31 34 37 38 39 40 40 42 45 44 40 38 41 45 50 57
1 2 2 1 1 2 2 2 2 2 2 2 2 2 2 2 2 2 2 2 2 3 3 3 4 5 6 8 9 9 9 9 8 8 8 8 8 9 9 10 11 13 15 19 23 29 32 31 30 31 31 33 36 39 41 44 44 41 35 31 30 35 41
2 1 2 2 2 2 2 2 2 2 2 2 2 2 2 2 2 2 2 2 2 2 2 3 3 4 5 6 7 8 9 9 8 8 7 8 8 8 8 8 10 10 12 16 20 25 31 33 32 30 29 29 30 30 32 35 38 38 35 29 23 22 27
2 2 2 2 2 2 2 2 2 2 2 2 2 2 2 2 2 2 2 2 2 2 2 2 2 3 3 4 5 7 8 9 9 8 7 7 7 7 7 7 8 9 9 12 15 21 28 33 34 32 30 29 28 27 27 27 29 30 32 30 25 20 20
2 2 2 2 2 2 2 2 2 2 2 2 2 2 2 2 2 2 2 2 2 2 2 2 2 2 3 3 4 4 6 8 8 8 8 7 7 7 7 7 7 7 8 9 11 16 23 29 34 34 32 29 28 28 27 25 25 25 27 28 27 24 20
2 2 1 2 2 2 2 2 2 2 2 2 2 2 2 2 2 2 2 2 2 2 2 2 2 3 2 2 3 3 4 5 7 8 8 8 7 7 7 7 7 7 7 7 9 11 16 24 30 33 34 32 30 29 28 27 25 24 25 26 27 26 23
2 2 2 2 2 2 2 2 2 2 2 2 2 2 2 2 2 2 2 2 2 2 2 2 2 3 3 3 2 3 3 4 4 6 7 8 8 7 7 7 7 8 7 6 7 8 12 17 24 29 32 33 32 31 30 28 26 24 23 24 26 27 27
2 2 2 2 2 2 2 2 2 2 2 2 2 2 2 2 2 2 2 2 2 2 2 2 2 2 2 3 3 3 3 3 3 4 5 6 7 7 8 8 7 8 8 7 6 7 9 13 18 23 28 31 32 33 32 31 30 28 25 24 24 26 28
2 2 2 2 2 2 2 2 2 2 2 2 2 2 2 2 2 2 2 2 2 2 2 2 2 2 2 2 3 3 3 3 3 3 3 4 5 6 7 7 8 7 7 7 7 6 8 10 14 18 22 26 30 33 34 33 33 32 29 26 24 24 25
2 2 2 2 2 2 2 2 2 2 2 2 2 2 2 2 2 2 2 2 2 2 2 2 2 2 2 2 2 2 3 3 3 3 3 3 3 4 5 6 7 6 6 7 7 6 7 8 12 15 19 23 27 30 32 33 33 33 32 30 28 25 23
3 3 2 2 2 2 2 2 2 3 2 2 2 2 2 2 2 2 2 2 3 2 2 2 2 2 2 2 2 2 2 3 3 3 3 3 3 3 3 4 5 5 6 6 6 7 7 8 10 13 16 20 23 26 28 30 31 32 32 32 31 30 28
2 3 3 3 3 2 2 3 3 3 3 3 2 2 2 2 2 2 2 2 2 3 3 3 2 2 3 2 2 2 2 2 2 3 3 3 3 3 3 3 4 4 5 6 6 7 7 8 9 11 14 17 19 22 24 26 28 30 31 33 33 33 31
3 3 3 3 3 3 3 3 3 3 3 3 3 3 3 3 3 3 3 3 2 2 2 3 3 2 3 2 2 2 2 2 2 2 2 3 3 3 3 3 3 3 4 5 6 6 7 7 8 9 12 14 16 18 20 22 24 26 28 31 33 33 32
3 3 3 3 3 3 3 3 3 3 3 3 3 3 3 3 3 3 3 3 3 3 3 2 3 3 2 3 2 2 2 2 2 2 2 3 3 3 3 3 3 3 3 4 4 5 6 7 8 8 10 12 13 15 16 18 19 21 22 24 26 28 28
3 3 3 3 3 3 3 3 3 3 3 3 3 3 3 3 4 3 3 3 3 3 3 3 3 3 3 3 2 2 2 2 2 2 2 2 2 3 3 3 3 3 3 3 3 4 5 5 6 7 8 10 11 13 14 15 16 16 17 17 19 21 23
2 3 3 3 3 3 3 3 3 3 3 3 3 4 3 4 4 4 3 4 3 3 3 3 3 3 3 3 2 3 2 2 2 2 2 3 2 2 3 3 3 3 3 3 3 3 4 4 4 5 6 7 8 10 12 12 13 14 15 15 17 18 21
3 2 3 3 3 3 3 3 3 3 3 3 4 4 3 4 4 4 4 4 4 4 3 3 3 3 3 3 3 3 3 2 3 2 2 3 2 2 3 2 3 3 3 3 3 3 3 3 4 4 5 5 6 7 9 10 12 13 14 15 16 17 18
3 3 3 3 3 3 3 3 3 3 3 4 4 4 3 3 3 4 4 4 4 4 4 4 4 3 3 3 3 3 3 3 3 3 2 3 2 2 3 3 3 3 3 3 3 3 3 3 3 4 4 4 5 5 6 8 9 11 12 13 15 15 15
3 3 3 3 3 3 3 3 3 3 3 3 4 4 3 3 3 3 4 4 4 4 4 4 4 4 4 3 3 3 3 3 3 3 3 2 2 2 2 2 3 2 2 3 3 3 3 3 3 3 3 3 4 4 5 5 6 7 9 10 12 13 14
3 3 3 3 3 3 3 3 3 3 3 3 4 4 4 4 4 4 4 4 4 4 4 4 4 4 4 4 3 3 3 3 3 3 3 3 2 3 2 2 2 2 2 3 3 3 3 3 3 3 3 3 3 4 4 4 4 5 6 7 9 11 12
3 3 3 3 3 3 3 3 3 3 3 3 3 4 4 4 4 4 4 4 4 4 4 4 4 4 4 4 4 4 4 3 3 3 3 3 3 3 2 2 2 2 2 2 3 3 3 3 3 3 3 3 3 4 4 4 4 4 5 6 7 8 9
3 3 3 3 4 4 3 3 3 3 3 3 3 3 4 4 4 4 4 4 4 4 4 4 4 4 4 5 5 4 4 4 4 4 3 3 3 3 2 2 2 2 2 2 3 3 3 3 3 3 3 3 3 3 4 4 4 4 4 4 5 6 7
3 3 3 3 3 4 4 4 4 4 3 3 3 3 4 4 4 4 4 4 4 4 4 4 4 4 5 5 5 5 5 5 4 5 4 4 3 3 3 3 3 2 3 3 2 3 3 3 3 3 3 3 3 3 3 3 3 4 4 4 4 4 5
3 3 3 3 3 3 4 4 4 4 4 4 4 4 4 4 4 4 4 4 4 4 4 4 4 4 4 4 4 5 5 5 5 5 5 5 4 4 4 3 3 3 3 3 3 3 3 3 3 3 3 3 3 3 3 3 3 3 3 4 4 4 4
3 3 3 3 3 3 3 3 3 4 4 4 4 4 4 4 4 4 4 4 4 4 4 4 4 4 4 4 4 4 4 5 5 5 6 5 5 4 4 4 4 3 3 3 3 3 3 3 3 3 3 3 3 3 3 3 3 4 4 4 4 4 4
4 4 4 4 4 4 4 4 4 4 4 4 4 4 4 4 4 4 4 4 4 4 4 4 4 4 4 4 4 4 4 4 4 5 5 5 5 5 4 4 4 4 4 4 4 4 4 3 3 3 3 3 3 3 4 4 4 4 4 4 4 4 5
4 4 4 4 4 4 4 4 4 4 4 4 4 4 4 4 4 4 4 4 4 4 4 4 4 4 4 4 4 4 4 4 4 4 4 4 4 4 4 5 5 4 4 4 4 5 5 4 4 4 3 3 4 4 4 4 4 4 4 5 5 5 5
4 4 4 4 4 4 4 4 4 4 4 4 4 4 4 4 4 4 4 4 4 4 4 4 4 4 4 4 4 4 4 4 5 5 5 5 5 4 4 5 5 5 5 5 4 4 5 5 5 5 5 5 5 4 4 4 4 5 5 5 5 5 5
4 4 4 4 4 4 4 4 4 4 4 4 4 4 4 4 4 4 4 4 4 4 4 4 4 4 4 4 4 4 4 4 4 4 5 5 5 5 5 5 5 5 5 5 5 5 5 5 5 5 5 5 6 6 6 6 5 5 5 5 5 5 5
4 4 4 4 4 4 4 4 4 4 4 4 4 4 4 4 4 4 4 4 4 4 4 4 4 4 4 3 4 4 4 4 4 4 4 4 4 5 5 5 5 5 5 5 5 5 5 5 5 5 5 5 5 6 6 6 6 6 6 6 6 5 5
4 4 4 4 4 4 4 4 4 4 4 4 4 4 4 4 4 4 4 4 4 4 4 4 4 4 4 4 4 4 4 4 4 4 4 4 4 4 5 5 5 5 5 5 5 4 5 5 5 5 5 5 5 5 5 6 6 6 6 7 7 6 6
5 5 5 5 4 4 4 4 4 4 4 4 4 4 4 4 4 4 4 4 4 4 4 4 4 4 4 4 4 4 4 4 4 4 5 5 5 5 5 5 5 5 5 5 5 5 5 5 4 4 5 5 5 5 5 5 5 6 6 7 7 7 8
5 5 5 5 5 5 5 5 5 4 4 4 4 4 4 4 4 4 4 4 4 4 4 4 4 4 4 4 4 4 4 4 5 5 5 5 5 5 5 5 5 5 5 5 5 5 5 5 5 5 5 5 5 5 5 5 5 5 6 6 6 7 8
6 6 6 6 6 5 5 5 5 5 5 5 4 4 5 4 4 4 4 4 4 4 4 4 4 4 4 4 4 5 5 5 5 5 6 6 6 6 6 6 6 6 6 6 5 5 5 5 5 5 5 5 5 5 5 5 5 5 6 6 6 7 7
7 7 7 7 7 6 6 6 6 5 5 5 5 5 5 5 5 4 4 4 4 4 4 4 4 4 4 4 4 5 5 5 5 5 6 6 6 6 6 6 6 6 6 6 6 6 6 5 5 5 5 5 5 5 5 5 5 6 6 6 6 7 7
8 8 8 8 8 7 7 7 7 6 6 6 6 6 6 5 5 5 5 5 4 4 4 4 4 4 4 4 4 4 5 5 5 5 6 6 6 6 6 6 6 6 6 6 6 6 6 6 6 6 6 6 6 6 6 6 6 6 6 6 7 7 7
Wind_Speed
63 64 65 67 69 71 73 75 78 79 80 80 81 82 85 89 92 95 99 103 105 107 108 110 112 115 118 121 124 127 128 128 129 129 129 129 129 130 131 132 134 134 135 138 143 148 150 151 151 152 151 149 148 146 145 145 146 145 143 142 140 138 136
60 61 62 64 65 67 69 71 73 75 77 78 78 79 81 84 88 91 95 98 101 103 105 106 108 111 114 117 121 124 126 128 128 128 128 129 128 128 129 130 131 131 131 134 138 144 149 151 151 152 152 152 151 149 148 148 148 148 146 144 142 140 139
57 58 59 61 63 64 66 67 68 70 73 75 76 77 78 80 83 86 90 93 97 99 101 103 104 107 110 114 117 121 123 126 127 127 127 128 128 127 127 127 129 129 129 130 134 139 145 150 152 152 152 153 153 152 151 150 149 149 149 147 144 141 139
54 56 57 59 60 61 62 63 64 66 68 71 73 75 77 78 79 82 85 88 92 95 97 98 100 103 106 110 113 116 119 123 125 126 126 126 126 126 126 126 127 127 127 128 130 134 140 146 150 152 152 152 153 153 152 151 150 150 150 149 147 143 140
51 53 55 56 57 58 60 61 62 63 65 67 70 72 74 75 76 78 80 82 86 89 91 94 96 99 102 105 107 110 114 118 122 124 125 124 124 125 125 125 125 125 125 126 127 130 135 141 146 150 152 152 152 152 152 151 150 149 150 150 149 147 144
49 50 52 52 54 55 57 58 59 61 62 64 66 68 70 72 74 75 77 79 81 83 86 89 92 95 98 100 102 105 109 113 117 121 123 124 123 123 123 124 124 124 124 123 124 126 130 136 141 145 149 151 151 152 152 152 150 149 149 149 149 149 147
46 46 47 48 50 52 53 54 56 58 59 61 63 65 67 69 71 73 75 76 78 79 81 84 87 90 92 95 97 100 104 108 112 116 119 122 123 123 122 122 123 124 123 122 121 122 126 131 136 141 144 147 149 151 151 151 151 149 147 147 149 150 150
43 43 44 45 46 47 49 51 53 55 56 57 59 61 63 65 68 70 72 74 76 77 79 80 82 84 87 89 92 96 99 102 106 110 114 118 121 122 122 122 122 123 123 122 120 119 121 127 133 137 140 143 146 148 149 150 150 150 149 147 148 149 150
41 41 42 42 43 44 45 48 50 52 53 54 55 57 59 61 64 66 69 71 73 75 77 79 80 81 83 84 87 90 94 97 100 104 108 112 116 119 120 121 122 122 121 121 120 117 118 122 128 133 136 139 142 144 146 148 150 151 150 149 148 148 148
39 39 40 40 41 41 43 44 46 48 49 51 53 55 57 58 61 63 65 67 70 72 74 76 78 79 80 81 82 84 87 90 94 98 102 106 110 113 116 119 121 121 120 119 118 117 116 118 123 128 132 136 139 142 144 146 147 149 149 149 149 148 147
38 38 39 39 39 40 40 41 42 44 46 48 50 52 54 56 58 60 62 64 67 69 71 73 75 76 77 78 79 80 81 84 87 91 96 100 104 108 111 114 118 120 120 118 117 116 116 116 119 124 128 133 136 140 142 144 145 146 147 147 148 149 148
36 37 37 38 38 38 38 39 40 42 44 46 47 49 51 53 55 57 59 62 64 66 68 69 71 72 74 75 76 77 78 79 82 85 89 93 98 101 105 108 112 116 117 117 117 117 117 116 117 120 125 129 133 136 139 141 142 143 144 145 146 147 148
33 34 35 36 37 37 37 37 38 40 42 44 46 47 48 50 51 54 57 59 61 62 64 65 67 68 70 72 73 74 76 77 78 80 83 86 91 95 99 103 107 110 113 115 116 117 117 117 117 119 122 125 129 132 135 138 139 141 142 143 145 146 147
31 32 33 34 35 36 36 36 37 38 40 43 44 46 46 48 49 51 53 55 57 59 60 62 63 64 65 67 69 71 72 74 75 76 78 81 84 88 92 97 101 105 108 111 112 115 116 117 118 119 121 123 126 128 131 133 135 137 138 140 141 143 143
28 29 30 32 33 34 35 35 36 37 38 41 42 44 45 47 49 50 51 53 54 56 57 59 60 60 61 62 64 66 68 70 71 73 74 76 79 82 85 89 94 98 102 106 108 111 114 116 117 118 119 121 122 124 126 129 131 133 134 134 135 137 138
26 27 28 29 31 32 33 33 34 35 37 39 41 43 45 47 48 49 50 51 52 53 55 56 58 59 59 60 61 62 64 66 68 69 71 73 75 77 80 83 88 92 96 100 103 107 110 113 114 115 117 118 119 120 122 124 126 127 128 129 131 132 134
23 24 25 26 28 29 30 31 32 33 35 37 39 41 44 46 47 48 49 49 50 51 52 53 55 56 56 57 58 59 60 62 63 65 67 69 71 73 75 79 82 85 89 93 97 101 105 107 110 111 113 115 116 118 119 120 121 123 124 125 127 128 129
21 22 22 23 24 25 27 28 30 31 33 35 37 40 42 44 45 46 47 47 48 49 50 51 52 53 53 54 55 56 57 58 60 62 64 66 67 69 71 74 76 78 82 86 90 94 98 102 105 108 110 111 113 114 115 116 118 119 120 122 123 124 126
20 20 20 20 21 22 24 25 27 29 30 33 35 37 39 41 42 43 43 44 46 47 48 49 50 50 51 52 53 53 54 55 57 59 61 63 65 67 69 70 71 73 76 79 83 87 91 95 98 101 104 106 108 110 111 113 114 116 117 118 120 122 123
19 19 20 20 20 21 22 23 25 26 28 30 32 34 35 37 38 39 40 41 43 44 46 47 47 48 49 50 50 50 51 52 53 56 59 60 62 64 66 66 66 68 71 73 76 79 83 86 89 92 96 99 101 104 106 108 110 112 114 115 117 119 122
19 20 20 21 21 21 22 23 24 25 26 27 28 30 32 34 36 37 38 38 39 41 42 43 44 46 46 47 47 48 48 49 50 53 55 57 60 62 62 62 62 64 66 67 69 72 75 78 82 85 89 92 95 98 101 103 105 107 109 111 114 116 118
18 19 19 20 20 21 21 22 23 23 24 25 26 27 29 31 33 34 36 36 37 38 39 40 41 42 43 44 45 46 46 47 47 49 51 54 55 57 57 58 60 61 62 63 65 67 70 72 75 79 82 85 88 92 94 97 99 101 103 105 107 110 113
17 17 17 18 18 18 19 19 20 21 21 22 23 25 26 27 29 31 33 34 35 36 37 37 38 39 40 41 43 43 44 44 45 46 49 51 51 51 52 54 55 57 58 60 62 63 65 68 70 73 76 78 81 84 86 88 91 93 96 98 99 102 105
16 16 16 16 16 17 17 17 18 19 19 20 21 22 23 24 25 26 28 30 32 33 34 35 36 37 37 38 40 40 41 41 42 44 47 48 48 47 48 49 51 53 54 56 58 60 62 64 66 69 71 73 75 77 79 80 82 84 87 89 91 94 96
15 16 16 17 16 16 16 16 16 17 18 18 19 19 20 21 22 23 25 27 28 30 32 33 34 35 36 36 37 38 38 39 40 42 44 46 46 45 45 47 49 49 50 51 53 56 58 61 63 65 67 68 69 70 72 73 75 76 79 81 84 87 90
14 15 15 16 17 17 17 17 16 16 16 16 17 18 19 19 20 21 23 24 25 27 28 30 31 32 33 34 35 36 36 37 38 40 41 43 44 43 43 44 45 45 46 47 50 52 54 57 59 60 61 61 63 64 66 67 69 70 72 75 78 81 84
13 13 14 15 16 16 16 17 16 16 16 16 16 17 17 18 19 20 21 22 23 24 25 27 28 29 30 31 32 33 34 35 36 37 38 39 40 40 40 41 42 43 43 44 46 48 50 52 54 55 55 56 58 60 62 63 64 66 69 72 75 77 80
11 11 12 12 13 14 14 15 15 15 15 16 16 16 17 17 18 19 20 21 21 23 24 25 26 27 28 29 30 31 32 32 33 34 35 36 36 37 38 39 40 41 41 42 43 44 45 47 49 49 50 51 54 56 58 59 61 64 67 69 71 73 75
10 10 10 10 10 10 10 11 11 12 13 14 15 15 16 16 17 17 18 19 20 22 22 24 25 26 26 27 28 29 29 30 31 32 33 33 34 34 35 36 37 38 39 40 41 41 42 43 45 46 47 48 50 52 54 56 58 61 63 65 66 68 70
11 11 10 10 9 9 8 8 8 8 9 10 11 12 13 14 15 16 17 18 19 20 21 22 23 24 25 25 26 26 27 28 28 29 30 31 32 32 33 34 34 35 36 37 38 39 40 42 42 43 45 46 48 50 52 53 55 57 59 60 62 64 65
14 12 11 10 9 9 8 7 7 6 6 7 7 8 9 11 12 14 15 17 18 19 20 21 22 23 23 24 24 24 24 25 25 25 26 27 28 29 30 32 33 34 35 36 37 38 39 40 41 42 43 44 45 47 49 51 52 53 54 56 57 59 60
15 14 12 11 10 10 9 8 7 6 6 6 6 6 7 7 9 10 12 13 15 17 18 19 20 21 22 22 22 23 23 23 23 23 23 24 25 26 27 28 29 31 33 34 35 37 37 38 39 40 41 43 44 45 47 48 49 50 51 52 53 55 56
17 16 15 13 12 11 10 9 9 8 7 6 6 6 6 6 6 7 8 10 11 13 15 16 17 18 19 20 20 21 21 21 22 22 22 22 23 23 24 25 26 28 29 31 32 34 36 37 38 39 40 41 42 44 45 46 47 48 49 50 51 52 54
18 17 16 15 14 12 12 11 10 9 9 8 7 6 6 6 6 6 6 7 8 10 11 13 14 15 17 18 18 19 20 20 21 21 21 22 22 22 23 23 24 25 26 27 29 30 32 34 36 37 38 39 41 42 43 44 45 46 46 47 48 49 50
18 17 16 15 15 14 13 12 11 10 10 9 8 8 7 7 6 6 6 6 7 8 9 10 11 13 14 15 16 17 18 19 20 20 21 21 22 22 22 23 24 24 25 26 27 28 29 30 32 34 36 38 39 40 41 42 43 44 44 45 46 47 48
17 16 16 15 14 14 13 13 12 11 10 10 10 9 9 8 8 7 7 6 6 7 7 8 9 10 12 13 14 15 16 17 18 19 20 21 21 22 22 23 23 24 24 25 26 27 28 29 30 31 33 35 36 38 39 41 41 42 43 44 45 46 47
Wind_Direction
250 249 248 246 245 244 243 243 244 245 246 245 243 241 240 240 240 239 239 238 238 238 237 236 236 236 237 238 239 240 241 241 241 241 241 240 239 238 238 237 237 237 236 236 238 240 242 243 245 246 247 248 248 248 248 249 249 250 250 249 249 249 249
250 249 248 247 245 244 243 242 242 243 244 245 244 243 241 240 239 239 239 239 239 238 238 237 236 235 235 236 237 239 240 241 241 241 241 241 240 239 238 238 237 237 236 235 236 238 240 242 243 244 246 247 247 248 248 248 249 250 250 250 249 249 249
249 249 248 247 246 245 244 243 242 242 243 243 244 244 243 241 240 239 239 239 239 239 239 238 237 236 235 235 235 237 238 240 241 241 241 241 241 240 239 238 238 237 235 235 235 236 237 240 242 243 244 246 246 247 247 248 248 249 250 251 250 250 249
248 248 248 247 246 245 244 244 243 243 243 243 243 243 243 242 241 240 239 239 239 240 239 239 238 237 236 235 235 235 237 238 240 241 242 242 241 241 241 240 239 238 236 235 234 234 236 237 240 242 243 244 245 246 247 247 248 249 250 251 251 251 250
247 246 246 246 246 245 244 243 243 242 242 242 242 242 243 243 243 242 241 240 240 240 240 239 238 238 237 236 236 235 236 237 238 240 242 242 242 242 242 241 241 239 238 236 235 234 235 236 238 240 242 243 245 246 247 248 248 248 249 250 251 252 252
248 246 246 245 245 244 244 243 242 242 241 241 241 241 241 242 242 242 242 242 241 240 239 239 239 238 238 238 237 236 235 235 236 238 240 242 243 242 242 242 242 241 240 238 236 235 235 235 237 238 240 242 244 245 246 247 248 248 249 249 250 251 252
250 249 247 246 245 244 244 244 243 242 242 242 241 241 241 241 241 241 241 242 242 241 240 239 238 238 238 238 237 237 236 235 235 236 238 240 242 243 243 242 242 242 242 240 238 236 235 236 236 238 239 240 242 244 245 246 248 248 249 249 250 250 251
250 249 248 246 245 244 243 243 242 242 241 242 242 242 242 241 241 241 241 241 241 241 241 240 240 239 238 237 237 237 237 236 236 236 237 238 240 241 242 243 242 242 242 242 241 238 236 236 237 237 238 239 241 242 244 245 247 248 249 249 249 250 250
252 250 248 247 245 244 243 242 242 241 241 241 241 242 242 242 241 241 241 241 241 241 241 241 241 240 239 237 236 236 236 236 236 236 236 237 238 239 241 242 243 243 242 242 242 240 238 237 237 238 238 239 240 241 242 243 245 246 247 249 249 249 250
253 251 249 247 246 244 243 243 242 242 241 240 240 241 241 241 241 241 241 241 240 240 241 241 241 241 240 239 238 237 236 236 236 236 236 236 237 238 239 240 242 243 243 242 242 241 240 238 238 238 238 239 240 240 241 242 243 245 246 247 249 250 250
253 251 250 248 247 246 244 244 243 242 242 240 240 239 240 240 241 241 241 241 241 240 240 240 241 241 241 241 240 239 237 236 235 235 235 236 236 236 237 238 240 242 243 243 242 242 241 240 238 238 238 239 239 240 241 242 243 244 245 246 247 249 250
252 252 251 250 248 247 246 245 243 243 243 242 241 240 240 240 240 241 242 242 241 241 241 240 240 240 241 241 241 241 239 238 236 235 235 235 236 236 236 237 238 239 241 242 242 242 242 241 240 239 238 238 239 240 240 241 242 243 244 245 246 247 249
250 250 250 250 249 248 246 245 244 243 243 243 242 242 241 241 241 241 242 242 243 242 242 241 240 240 240 240 240 241 240 239 238 236 236 235 235 236 236 236 237 238 239 240 241 241 242 242 241 240 239 238 239 239 240 241 241 242 243 244 245 246 248
251 250 248 248 248 247 246 245 244 243 243 243 243 243 243 243 242 242 242 242 243 243 242 242 241 240 240 239 240 240 241 241 240 238 237 236 236 236 236 236 236 237 237 238 238 239 240 241 241 241 240 239 239 239 240 240 241 242 243 243 244 245 247
253 251 249 248 246 245 245 244 243 242 242 243 243 244 244 244 243 243 242 242 242 242 242 241 241 241 240 239 239 240 240 241 241 240 239 238 237 236 236 236 236 236 237 237 237 238 239 240 240 241 241 241 240 240 240 241 242 242 243 244 245 246 247
255 253 251 249 248 246 245 244 243 242 242 242 242 242 243 244 244 244 244 243 242 242 241 241 241 241 240 240 239 239 239 239 240 240 240 239 238 237 236 236 236 236 236 237 237 238 238 240 240 241 241 241 241 241 241 242 242 243 244 244 245 246 246
260 257 254 252 251 249 248 247 245 244 243 243 243 243 242 243 244 245 245 244 244 243 243 242 242 242 242 241 241 240 239 239 239 239 240 240 239 239 238 237 236 236 236 237 237 238 239 239 240 241 241 242 242 242 242 242 243 243 244 245 245 246 247
266 263 260 257 255 253 251 249 247 246 245 244 244 244 244 244 244 245 246 247 246 246 246 245 244 244 243 242 242 242 241 240 239 239 239 239 239 238 238 238 237 237 236 237 237 237 238 239 239 240 241 241 242 242 242 242 243 243 244 244 245 246 247
269 267 264 261 258 256 253 251 249 247 246 246 245 246 246 247 246 246 246 247 247 248 248 247 247 246 245 245 244 243 243 242 241 240 239 239 238 238 238 237 237 237 237 237 237 238 238 239 239 240 240 241 242 242 242 242 242 243 243 244 244 245 247
273 271 268 264 261 257 254 252 249 247 246 246 246 247 248 249 250 249 247 246 246 247 248 248 249 249 248 247 247 245 244 244 243 242 241 240 239 239 239 238 238 237 237 237 238 238 239 240 240 240 241 241 242 242 242 242 242 242 242 242 243 244 245
278 275 272 269 266 262 258 255 253 250 248 247 246 246 247 248 249 249 249 248 247 247 247 248 248 249 249 249 248 247 246 244 243 243 243 242 240 240 240 239 239 239 238 238 239 239 239 240 240 241 241 241 241 241 242 242 242 242 242 242 242 243 244
283 280 277 274 271 268 264 261 259 256 253 249 247 246 245 245 246 247 248 248 248 247 247 246 246 247 248 248 248 248 247 246 245 244 244 244 243 242 241 240 239 239 239 239 239 239 239 240 240 240 241 241 241 241 241 242 242 242 242 242 242 242 243
289 285 282 279 276 272 269 265 262 259 255 251 249 247 245 245 244 245 246 247 247 248 247 247 246 246 246 246 247 247 247 247 246 246 246 245 244 243 242 241 240 240 239 239 239 239 239 240 240 241 241 242 242 242 242 242 242 243 243 243 243 243 243
297 293 290 285 281 277 273 268 265 262 260 257 254 251 249 247 245 244 244 245 246 247 248 248 247 247 246 245 245 245 245 246 246 247 248 247 246 244 243 242 241 240 239 238 239 239 239 239 240 240 241 241 242 242 243 243 243 244 244 244 244 245 245
303 300 298 295 290 286 281 276 272 268 266 263 261 259 257 254 251 247 245 244 243 244 245 245 246 246 246 245 245 244 243 243 243 244 246 248 248 246 244 242 242 240 239 239 239 239 240 240 240 240 240 241 241 242 243 243 244 244 244 244 244 244 245
307 303 301 298 297 294 291 287 282 277 273 268 265 261 259 257 254 252 249 247 245 245 245 245 246 247 247 247 246 246 245 243 242 241 242 244 246 246 246 245 245 243 241 239 239 239 239 240 240 240 240 241 242 243 243 243 243 243 243 243 243 243 243
311 307 304 300 297 295 292 289 285 281 277 273 269 264 261 258 256 254 252 250 249 248 248 247 247 247 247 247 247 248 248 247 246 245 244 244 244 245 245 245 246 246 244 241 240 239 239 240 240 240 239 239 239 240 240 240 241 241 242 242 242 242 242
320 314 308 303 299 295 291 287 285 281 278 275 272 269 265 262 259 257 254 252 250 248 247 246 245 245 245 245 246 246 247 248 248 248 247 247 246 245 244 243 244 244 244 244 243 242 241 241 241 241 240 238 238 238 238 238 238 238 239 239 240 240 241
338 333 327 320 314 307 300 294 288 284 280 276 272 269 265 262 260 257 255 254 251 249 247 246 245 245 244 244 244 244 245 246 247 247 248 248 248 248 247 245 244 243 243 243 243 242 242 241 241 240 239 238 237 237 237 237 236 236 237 238 238 239 240
353 348 343 338 334 327 320 310 301 294 289 285 279 274 269 264 260 257 255 253 252 250 249 247 246 246 245 244 244 243 243 243 243 244 245 246 247 247 247 246 246 244 243 242 241 240 239 239 239 238 238 237 236 236 236 236 236 237 237 238 238 238 239
360 355 352 349 345 340 334 329 323 318 314 309 302 293 284 276 269 264 259 256 254 252 250 249 248 247 246 245 245 244 244 243 243 242 243 243 243 244 244 244 244 244 244 243 242 240 239 237 236 236 236 236 236 236 236 236 236 236 237 238 239 240 240
6 2 0 358 354 350 345 343 341 341 338 333 327 318 308 297 287 277 270 264 260 256 254 252 251 249 248 247 246 245 245 244 243 243 242 242 242 242 242 242 242 242 242 242 241 241 240 239 237 236 235 234 234 234 235 235 235 235 235 236 237 239 240
9 8 7 5 1 357 354 352 350 347 344 341 337 331 323 312 301 291 282 274 267 262 259 257 255 253 252 250 248 246 245 244 243 242 241 241 241 241 241 242 242 242 242 241 241 241 240 240 239 238 236 235 235 234 235 235 235 235 234 234 235 236 237
8 8 7 7 6 4 2 1 358 355 350 346 344 341 334 326 317 307 296 286 278 271 265 261 258 256 254 251 249 247 245 243 242 241 240 239 239 239 240 240 241 241 241 241 241 240 240 240 239 238 237 236 235 235 235 235 235 235 236 236 236 236 236
6 6 6 5 6 6 6 5 5 3 1 358 356 354 350 342 333 323 312 302 292 282 273 267 262 258 255 253 250 248 246 244 242 241 240 239 239 239 239 239 238 239 239 238 238 238 238 238 238 238 237 236 236 235 235 235 236 236 235 235 235 236 236
6 5 5 5 4 5 5 6 7 7 8 8 7 5 1 356 348 341 330 317 305 295 284 275 268 262 257 254 251 249 246 245 244 243 242 241 240 240 240 240 239 238 238 237 237 236 235 235 234 234 235 235 236 236 236 236 237 237 237 237 237 237 237